Ellensburg, WA
on Thursday, November 8, 2012

Thursday
Previous Day Next Day
Daily Summary
 ActualAverage (KYKM)Record (KYKM)
Temperature
Mean Temperature °F 40°F  
Max Temperature 50°F 52°F 70°F (1995)
Min Temperature 30°F 29°F 17°F (1993)
Degree Days
Heating Degree Days 25 25  
Month to date heating degree days 188  
Since 1 July heating degree days 892  
Cooling Degree Days 0 0  
Month to date cooling degree days 0  
Year to date cooling degree days 472  
Moisture
Dew Point 28°F   
Average Humidity 70    
Maximum Humidity 82    
Minimum Humidity 36    
Precipitation
Precipitation 0.01 in 0.03 in 0.52 in (1968)
Month to date precipitation 0.23  
Year to date precipitation 5.90  
Snow
Snow 0.00 in 0.00 in 1.20 in (1973)
Month to date snowfall 0.2  
Year to date snowfall 8.9  
Since 1 July snowfall 0.3  
Snow Depth in   
Wind
Wind Speed 3 mph   
Max Wind Speed 12 mph   
Max Gust Speed mph   
Visibility 9 miles   
Events Snow   

Key: T is trace of precipitation, MM is missing value
Source: NWS Daily Summary
Time(PST)TemperatureDew PointHumidity Pressure Visibility Wind DirectionWind SpeedGust SpeedPrecipitationEvents Conditions
12:53 AM 34.0°F 27.0°F 75% 29.94 in 10.0 miles Calm Calm - N/A   Unknown
1:53 AM 30.9°F 25.0°F 79% 29.92 in 10.0 miles Calm Calm - N/A   Clear
2:53 AM 30.0°F 25.0°F 82% 29.91 in 10.0 miles NE 3.5 mph - N/A   Scattered Clouds
3:53 AM 30.0°F 24.1°F 79% 29.89 in 10.0 miles Calm Calm - N/A   Scattered Clouds
4:53 AM 30.9°F 25.0°F 79% 29.89 in 10.0 miles Calm Calm - N/A   Overcast
5:53 AM 33.1°F 27.0°F 78% 29.87 in 10.0 miles Calm Calm - N/A   Overcast
6:53 AM 32.0°F 27.0°F 82% 29.86 in 10.0 miles Calm Calm - N/A   Overcast
7:53 AM 35.1°F 28.9°F 78% 29.85 in 10.0 miles Calm Calm - N/A   Overcast
8:53 AM 36.0°F 30.0°F 79% 29.85 in 10.0 miles Calm Calm - N/A   Overcast
9:37 AM 37.4°F 30.2°F 75% 29.80 in 1.5 miles Calm Calm - 0.00 in Snow Light Snow
9:44 AM 35.6°F 30.2°F 81% 29.79 in 1.5 miles West 4.6 mph - 0.00 in Snow Light Snow
9:47 AM 35.6°F 30.2°F 81% 29.79 in 3.0 miles WNW 5.8 mph - 0.00 in Snow Light Snow
9:53 AM 36.0°F 30.9°F 82% 29.83 in 2.5 miles WNW 5.8 mph - 0.00 in Snow Light Snow
10:03 AM 35.6°F 30.2°F 81% 29.79 in 6.0 miles West 5.8 mph - 0.01 in Snow Light Snow
10:53 AM 42.1°F 34.0°F 73% 29.81 in 10.0 miles WNW 9.2 mph - 0.01 in   Mostly Cloudy
11:53 AM 46.9°F 33.1°F 59% 29.78 in 10.0 miles WNW 10.4 mph - N/A   Mostly Cloudy
12:53 PM 48.9°F 30.0°F 48% 29.76 in 10.0 miles WNW 11.5 mph - N/A   Clear
1:53 PM 50.0°F 28.9°F 44% 29.75 in 10.0 miles WNW 11.5 mph - N/A   Scattered Clouds
2:53 PM 50.0°F 27.0°F 41% 29.75 in 10.0 miles WNW 8.1 mph - N/A   Mostly Cloudy
3:53 PM 48.0°F 21.9°F 36% 29.75 in 10.0 miles NE 3.5 mph - N/A   Overcast
4:53 PM 39.0°F 27.0°F 62% 29.77 in 10.0 miles NW 8.1 mph - N/A   Clear
5:53 PM 39.9°F 28.0°F 63% 29.77 in 10.0 miles NNW 11.5 mph - N/A   Partly Cloudy
6:53 PM 35.1°F 24.1°F 64% 29.78 in 10.0 miles North 6.9 mph - N/A   Clear
7:53 PM 34.0°F 21.9°F 61% 29.78 in 10.0 miles Calm Calm - N/A   Clear
8:53 PM 35.1°F 24.1°F 64% 29.79 in 10.0 miles ESE 4.6 mph - N/A   Overcast
9:53 PM 36.0°F 28.0°F 73% 29.79 in 10.0 miles Calm Calm - N/A   Overcast
10:53 PM 34.0°F 27.0°F 75% 29.78 in 10.0 miles Calm Calm - N/A   Overcast
11:53 PM 34.0°F 27.0°F 75% 29.78 in 10.0 miles Calm Calm - N/A   Overcast
Moon Phase
Nov. 08 Nov. 13 Nov. 20 Nov. 28 Dec. 06
Sunrise:06:56 AM (PST) Moon Rise:12:34 AM (PST)11/8
Sunset:04:35 PM (PST) Moon Set:01:38 PM (PST)11/8

Copyright © 2014 The Weather Underground, Inc.